,

(GMT )
Banff

Weather History for CWZG - December, 2013

Change the Weather History Date:

Monday, December 2, 2013

  Actual Average Record
Temperature  
Mean Temperature 17 °F -  
Max Temperature 26 °F - - ()
Min Temperature 8 °F - - ()
Degree Days  
Heating Degree Days 48    
Moisture  
Dew Point 13 °F    
Average Humidity 89    
Maximum Humidity 99    
Minimum Humidity 79    
Precipitation  
Precipitation 0.22 in - - ()
Sea Level Pressure  
Sea Level Pressure 29.95 in    
Wind  
Wind Speed 6 mph ()    
Max Wind Speed 12 mph    
Max Gust Speed 20 mph    
T = Trace of Precipitation, MM = Missing Value Source: Averaged Metar Reports

Daily Weather History Graph

Daily Weather History Graph

Search for Another Location

Airport or City:

Trip Planner

Search our weather history database for the weather conditions in past years. The results will help you decide how hot, cold, wet, or windy it might be!

Date:

Astronomy

Dec. 02, 2013 Rise Set
Actual Time 8:26 AM MST 4:37 PM MST
Civil Twilight 7:47 AM MST 5:16 PM MST
Nautical Twilight 7:05 AM MST 5:58 PM MST
Astronomical Twilight 6:25 AM MST 6:38 PM MST
Moon 7:51 AM MST (12/2) 4:47 PM MST (12/2)
Length of Visible Light 9h 28m
Length of Day
8h 11m
Waning Crescent, 0% of the Moon is Illuminated
Dec 2
Waning Crescent
Dec 2
New
Dec 9
First Quarter
Dec 17
Full
Dec 25
Last Quarter

Hourly Weather History & Observations

Time (MST) Temp. Windchill Dew Point Humidity Pressure Visibility Wind Dir Wind Speed Gust Speed Precip Events Conditions
12:00 AM 25.9 °F 21.7 °F 25.7 °F 99% 29.63 in - SSW 3.5 mph - N/A   Unknown
1:00 AM 21.6 °F - 21.2 °F 99% 29.65 in - NE 2.3 mph - N/A   Unknown
2:00 AM 26.8 °F 21.4 °F 25.9 °F 96% 29.62 in - NE 4.6 mph - N/A   Unknown
3:00 AM 26.4 °F 18.0 °F 22.6 °F 86% 29.63 in - NE 8.1 mph - N/A   Unknown
4:00 AM 24.4 °F 14.9 °F 19.4 °F 81% 29.66 in - ENE 9.2 mph 17.3 mph N/A   Unknown
5:00 AM 22.3 °F 11.5 °F 16.5 °F 79% 29.69 in - ENE 10.4 mph - N/A   Unknown
6:00 AM 20.1 °F 9.5 °F 14.9 °F 80% 29.70 in - NE 9.2 mph 19.6 mph N/A   Unknown
7:00 AM 18.5 °F 6.1 °F 13.6 °F 81% 29.75 in - NNE 11.5 mph 18.4 mph N/A   Unknown
8:00 AM 17.2 °F 5.2 °F 13.1 °F 84% 29.80 in - NNE 10.4 mph - N/A   Unknown
9:00 AM 15.8 °F 2.7 °F 12.6 °F 87% 29.86 in - NNE 11.5 mph 17.3 mph N/A   Unknown
10:00 AM 15.1 °F 3.3 °F 12.6 °F 90% 29.91 in - ENE 9.2 mph - 0.01 in   Unknown
11:00 AM 14.5 °F 3.6 °F 12.4 °F 91% 29.93 in - NE 8.1 mph - 0.02 in   Unknown
12:00 PM 13.6 °F 1.6 °F 11.3 °F 90% 29.98 in - ENE 9.2 mph - 0.02 in   Unknown
1:00 PM 13.8 °F 1.0 °F 10.9 °F 88% 29.99 in - East 10.4 mph - 0.02 in   Unknown
2:00 PM 13.5 °F 3.3 °F 10.9 °F 90% 30.02 in - East 6.9 mph - 0.02 in   Unknown
3:00 PM 13.1 °F 5.4 °F 10.6 °F 90% 30.06 in - ENE 4.6 mph - 0.01 in   Unknown
4:00 PM 12.2 °F 4.3 °F 9.9 °F 90% 30.12 in - NE 4.6 mph - 0.02 in   Unknown
5:00 PM 10.8 °F 2.7 °F 8.8 °F 92% 30.17 in - NE 4.6 mph - 0.02 in   Unknown
6:00 PM 10.4 °F -0.4 °F 8.4 °F 92% 30.20 in - NE 6.9 mph - 0.02 in   Unknown
7:00 PM 9.7 °F -1.3 °F 7.7 °F 92% 30.23 in - NE 6.9 mph - 0.02 in   Unknown
8:00 PM 9.3 °F -1.7 °F 7.2 °F 91% 30.26 in - NE 6.9 mph - 0.02 in   Unknown
9:00 PM 9.1 °F -1.9 °F 6.8 °F 90% 30.29 in - NE 6.9 mph - N/A   Unknown
10:00 PM 8.6 °F -4.7 °F 6.1 °F 89% 30.32 in - NNE 9.2 mph - 0.02 in   Unknown
11:00 PM 8.6 °F -2.6 °F 5.7 °F 88% 30.35 in - NE 6.9 mph - N/A   Unknown